| time (UTC) | temp F | wind direction | speed MPH | gust MPH | rain 1hr in | rain 24hr in | rain mn in | humidity % | barometer mb |
| 20260503050023 | 39 | 264 | 3.0 | 7.0 | 0.00 | 0.00 | 0.00 | 70 | 1017.9 |
| 20260503045520 | 39 | 262 | 3.0 | 7.0 | 0.00 | 0.00 | 0.00 | 70 | 1017.8 |
| 20260503045019 | 39 | 249 | 3.0 | 7.0 | 0.00 | 0.00 | 0.00 | 70 | 1017.8 |
| 20260503044539 | 40 | 262 | 4.0 | 9.0 | 0.00 | 0.00 | 0.00 | 69 | 1017.9 |
| 20260503044017 | 40 | 271 | 2.0 | 9.0 | 0.00 | 0.00 | 0.00 | 69 | 1017.7 |
| 20260503043516 | 40 | 273 | 4.0 | 8.0 | 0.00 | 0.00 | 0.00 | 69 | 1017.7 |
| 20260503043032 | 40 | 281 | 4.0 | 9.0 | 0.00 | 0.00 | 0.00 | 69 | 1017.7 |
| 20260503042513 | 40 | 315 | 4.0 | 9.0 | 0.00 | 0.00 | 0.00 | 69 | 1017.6 |
| 20260503042012 | 40 | 277 | 2.0 | 13.0 | 0.00 | 0.00 | 0.00 | 70 | 1017.6 |
| 20260503041511 | 40 | 292 | 5.0 | 13.0 | 0.00 | 0.00 | 0.00 | 70 | 1017.7 |
| 20260503041011 | 39 | 321 | 5.0 | 11.0 | 0.00 | 0.00 | 0.00 | 70 | 1017.6 |
| 20260503040508 | 39 | 302 | 4.0 | 10.0 | 0.00 | 0.00 | 0.00 | 71 | 1017.6 |
| 20260503040007 | 38 | 340 | 1.0 | 6.0 | 0.00 | 0.00 | 0.00 | 72 | 1017.5 |
| 20260503035507 | 38 | 360 | 1.0 | 3.0 | 0.00 | 0.00 | 0.00 | 72 | 1017.5 |
| 20260503035006 | 38 | 360 | 1.0 | 3.0 | 0.00 | 0.00 | 0.00 | 72 | 1017.4 |
| 20260503034504 | 39 | 360 | 0.0 | 2.0 | 0.00 | 0.00 | 0.00 | 71 | 1017.4 |
| 20260503034004 | 39 | 360 | 0.0 | 3.0 | 0.00 | 0.00 | 0.00 | 70 | 1017.4 |
| 20260503033504 | 39 | 360 | 0.0 | 4.0 | 0.00 | 0.00 | 0.00 | 70 | 1017.4 |
| 20260503033002 | 40 | 360 | 0.0 | 4.0 | 0.00 | 0.00 | 0.00 | 69 | 1017.3 |
| 20260503032603 | 40 | 360 | 0.0 | 3.0 | 0.00 | 0.00 | 0.00 | 68 | 1017.2 |
| 20260503032100 | 40 | 360 | 0.0 | 4.0 | 0.00 | 0.00 | 0.00 | 67 | 1017.2 |
| 20260503031559 | 40 | 18 | 0.0 | 4.0 | 0.00 | 0.00 | 0.00 | 66 | 1017.1 |
| 20260503031059 | 41 | 360 | 1.0 | 4.0 | 0.00 | 0.00 | 0.00 | 66 | 1017.1 |
| 20260503030557 | 41 | 360 | 2.0 | 6.0 | 0.00 | 0.00 | 0.00 | 65 | 1017.0 |
| 20260503025556 | 41 | 290 | 2.0 | 6.0 | 0.00 | 0.00 | 0.00 | 64 | 1016.9 |
| 20260503025058 | 41 | 15 | 2.0 | 6.0 | 0.00 | 0.00 | 0.00 | 64 | 1017.0 |
| 20260503024555 | 42 | 355 | 2.0 | 8.0 | 0.00 | 0.00 | 0.00 | 64 | 1017.1 |
| 20260503024056 | 42 | 288 | 1.0 | 9.0 | 0.00 | 0.00 | 0.00 | 63 | 1017.1 |
| 20260503023555 | 42 | 302 | 4.0 | 9.0 | 0.00 | 0.00 | 0.00 | 63 | 1017.1 |
| 20260503023105 | 42 | 319 | 3.0 | 13.0 | 0.00 | 0.00 | 0.00 | 63 | 1017.2 |
| 20260503022554 | 42 | 342 | 5.0 | 13.0 | 0.00 | 0.00 | 0.00 | 63 | 1017.1 |
| 20260503022058 | 42 | 317 | 6.0 | 11.0 | 0.00 | 0.00 | 0.00 | 63 | 1017.0 |
| 20260503021558 | 42 | 336 | 2.0 | 9.0 | 0.00 | 0.00 | 0.00 | 64 | 1017.0 |
| 20260503021053 | 42 | 329 | 4.0 | 10.0 | 0.00 | 0.00 | 0.00 | 64 | 1017.0 |
| 20260503020553 | 42 | 338 | 3.0 | 10.0 | 0.00 | 0.00 | 0.00 | 65 | 1016.9 |
| 20260503020057 | 42 | 304 | 3.0 | 9.0 | 0.00 | 0.00 | 0.00 | 65 | 1017.0 |
| 20260503015551 | 42 | 298 | 3.0 | 9.0 | 0.00 | 0.00 | 0.00 | 65 | 1016.9 |
| 20260503015051 | 42 | 286 | 3.0 | 9.0 | 0.00 | 0.00 | 0.00 | 65 | 1016.8 |
| 20260503014551 | 42 | 335 | 4.0 | 10.0 | 0.00 | 0.00 | 0.00 | 65 | 1016.8 |
| 20260503014051 | 42 | 342 | 5.0 | 10.0 | 0.00 | 0.00 | 0.00 | 66 | 1016.7 |
| 20260503013554 | 41 | 335 | 3.0 | 9.0 | 0.00 | 0.00 | 0.00 | 66 | 1016.7 |
| 20260503013051 | 42 | 333 | 1.0 | 6.0 | 0.00 | 0.00 | 0.00 | 66 | 1016.6 |
| 20260503012549 | 42 | 350 | 2.0 | 5.0 | 0.00 | 0.00 | 0.00 | 66 | 1016.6 |
| 20260503012047 | 42 | 309 | 0.0 | 2.0 | 0.00 | 0.00 | 0.00 | 65 | 1016.5 |
| 20260503011600 | 42 | 309 | 0.0 | 3.0 | 0.00 | 0.00 | 0.00 | 65 | 1016.4 |
| 20260503011049 | 43 | 309 | 1.0 | 8.0 | 0.00 | 0.00 | 0.00 | 64 | 1016.4 |
| 20260503010547 | 43 | 309 | 3.0 | 8.0 | 0.00 | 0.00 | 0.00 | 63 | 1016.3 |
| 20260503010047 | 43 | 323 | 2.0 | 8.0 | 0.00 | 0.00 | 0.00 | 63 | 1016.3 |
| 20260503005550 | 43 | 277 | 2.0 | 10.0 | 0.00 | 0.00 | 0.00 | 62 | 1016.4 |
| 20260503005045 | 44 | 302 | 3.0 | 10.0 | 0.00 | 0.00 | 0.00 | 62 | 1016.2 |
| 20260503004548 | 44 | 331 | 4.0 | 10.0 | 0.00 | 0.00 | 0.00 | 61 | 1016.2 |
| 20260503004044 | 44 | 300 | 3.0 | 9.0 | 0.00 | 0.00 | 0.00 | 61 | 1016.3 |
| 20260503003544 | 44 | 297 | 3.0 | 9.0 | 0.00 | 0.00 | 0.00 | 61 | 1016.2 |
| 20260503003043 | 45 | 355 | 4.0 | 9.0 | 0.00 | 0.00 | 0.00 | 60 | 1016.1 |
| 20260503002544 | 45 | 320 | 4.0 | 11.0 | 0.00 | 0.00 | 0.00 | 59 | 1016.1 |
| 20260503002044 | 45 | 11 | 5.0 | 15.0 | 0.00 | 0.00 | 0.00 | 59 | 1016.0 |
| 20260503001543 | 45 | 304 | 7.0 | 15.0 | 0.00 | 0.00 | 0.00 | 58 | 1016.0 |
| 20260503001042 | 46 | 16 | 4.0 | 14.0 | 0.00 | 0.00 | 0.00 | 58 | 1015.8 |
| 20260503000643 | 46 | 312 | 9.0 | 17.0 | 0.00 | 0.00 | 0.00 | 57 | 1015.8 |
| 20260503000059 | 46 | 42 | 8.0 | 17.0 | 0.00 | 0.00 | 0.00 | 57 | 1015.6 |
| 20260502235542 | 46 | 330 | 4.0 | 14.0 | 0.00 | 0.00 | 0.00 | 56 | 1015.5 |
| 20260502235042 | 47 | 350 | 8.0 | 14.0 | 0.00 | 0.00 | 0.00 | 56 | 1015.4 |
| 20260502234552 | 47 | 337 | 6.0 | 11.0 | 0.00 | 0.00 | 0.00 | 54 | 1015.4 |
| 20260502234042 | 47 | 348 | 5.0 | 14.0 | 0.00 | 0.00 | 0.00 | 53 | 1015.2 |
| 20260502233540 | 48 | 296 | 7.0 | 15.0 | 0.00 | 0.00 | 0.00 | 53 | 1015.1 |
| 20260502233042 | 48 | 342 | 8.0 | 15.0 | 0.00 | 0.00 | 0.00 | 51 | 1015.1 |
| 20260502232542 | 48 | 306 | 7.0 | 16.0 | 0.00 | 0.00 | 0.00 | 51 | 1015.1 |
| 20260502232043 | 49 | 297 | 8.0 | 21.0 | 0.00 | 0.00 | 0.00 | 51 | 1015.0 |
| 20260502231540 | 49 | 333 | 9.0 | 21.0 | 0.00 | 0.00 | 0.00 | 51 | 1015.0 |
| 20260502231041 | 49 | 329 | 6.0 | 13.0 | 0.00 | 0.00 | 0.00 | 53 | 1015.0 |
| 20260502230540 | 49 | 314 | 7.0 | 13.0 | 0.00 | 0.00 | 0.00 | 51 | 1015.0 |
| 20260502230040 | 49 | 292 | 5.0 | 14.0 | 0.00 | 0.00 | 0.00 | 51 | 1014.9 |
| 20260502225539 | 50 | 301 | 9.0 | 18.0 | 0.00 | 0.00 | 0.00 | 50 | 1014.8 |
| 20260502225039 | 50 | 5 | 11.0 | 18.0 | 0.00 | 0.00 | 0.00 | 49 | 1014.8 |
| 20260502224539 | 50 | 360 | 9.0 | 14.0 | 0.00 | 0.00 | 0.00 | 50 | 1014.8 |
| 20260502224041 | 50 | 340 | 5.0 | 16.0 | 0.00 | 0.00 | 0.00 | 51 | 1014.8 |
| 20260502223538 | 50 | 360 | 8.0 | 14.0 | 0.00 | 0.00 | 0.00 | 51 | 1014.9 |
| 20260502223040 | 50 | 296 | 8.0 | 14.0 | 0.00 | 0.00 | 0.00 | 50 | 1014.9 |
| 20260502222539 | 51 | 32 | 5.0 | 17.0 | 0.00 | 0.00 | 0.00 | 51 | 1014.7 |
| 20260502222038 | 51 | 13 | 10.0 | 17.0 | 0.00 | 0.00 | 0.00 | 52 | 1014.8 |
| 20260502221539 | 51 | 355 | 7.0 | 11.0 | 0.00 | 0.00 | 0.00 | 51 | 1014.7 |
| 20260502221037 | 50 | 9 | 4.0 | 13.0 | 0.00 | 0.00 | 0.00 | 52 | 1014.6 |
| 20260502220537 | 50 | 318 | 6.0 | 17.0 | 0.00 | 0.00 | 0.00 | 53 | 1014.7 |
| 20260502220043 | 50 | 5 | 12.0 | 17.0 | 0.00 | 0.00 | 0.00 | 51 | 1014.4 |
| 20260502215536 | 50 | 296 | 10.0 | 15.0 | 0.00 | 0.00 | 0.00 | 51 | 1014.5 |
| 20260502215036 | 50 | 336 | 8.0 | 15.0 | 0.00 | 0.00 | 0.00 | 52 | 1014.3 |
| 20260502214539 | 50 | 311 | 6.0 | 16.0 | 0.00 | 0.00 | 0.00 | 51 | 1014.3 |
| 20260502214036 | 50 | 306 | 9.0 | 16.0 | 0.00 | 0.00 | 0.00 | 51 | 1014.3 |
| 20260502213539 | 51 | 329 | 7.0 | 15.0 | 0.00 | 0.00 | 0.00 | 50 | 1014.2 |
| 20260502213040 | 51 | 360 | 5.0 | 16.0 | 0.00 | 0.00 | 0.00 | 50 | 1014.1 |
| 20260502212536 | 52 | 344 | 7.0 | 18.0 | 0.00 | 0.00 | 0.00 | 49 | 1014.0 |
| 20260502212035 | 52 | 306 | 9.0 | 18.0 | 0.00 | 0.00 | 0.00 | 48 | 1014.0 |
| 20260502211538 | 53 | 316 | 11.0 | 18.0 | 0.00 | 0.00 | 0.00 | 48 | 1014.0 |
| 20260502211038 | 52 | 355 | 8.0 | 19.0 | 0.00 | 0.00 | 0.00 | 48 | 1013.8 |
| 20260502210537 | 52 | 348 | 9.0 | 19.0 | 0.00 | 0.00 | 0.00 | 49 | 1013.8 |
| 20260502210034 | 52 | 308 | 11.0 | 18.0 | 0.00 | 0.00 | 0.00 | 49 | 1013.7 |
| 20260502205535 | 52 | 355 | 11.0 | 18.0 | 0.00 | 0.00 | 0.00 | 49 | 1013.6 |
| 20260502205036 | 53 | 351 | 9.0 | 20.0 | 0.00 | 0.00 | 0.00 | 48 | 1013.5 |
| 20260502204537 | 53 | 330 | 10.0 | 20.0 | 0.00 | 0.00 | 0.00 | 44 | 1013.5 |
| 20260502204034 | 54 | 338 | 10.0 | 19.0 | 0.00 | 0.00 | 0.00 | 47 | 1013.5 |
| 20260502203533 | 54 | 16 | 8.0 | 16.0 | 0.00 | 0.00 | 0.00 | 46 | 1013.3 |
| 20260502203033 | 53 | 13 | 8.0 | 20.0 | 0.00 | 0.00 | 0.00 | 47 | 1013.4 |
| 20260502202533 | 54 | 294 | 12.0 | 20.0 | 0.00 | 0.00 | 0.00 | 45 | 1013.3 |
| 20260502202033 | 55 | 331 | 11.0 | 19.0 | 0.00 | 0.00 | 0.00 | 47 | 1013.2 |
| 20260502201541 | 55 | 333 | 9.0 | 18.0 | 0.00 | 0.00 | 0.00 | 43 | 1013.2 |
| 20260502201035 | 54 | 341 | 9.0 | 15.0 | 0.00 | 0.00 | 0.00 | 46 | 1013.2 |
| 20260502200532 | 54 | 348 | 7.0 | 16.0 | 0.00 | 0.00 | 0.00 | 45 | 1013.2 |
| 20260502200032 | 55 | 24 | 7.0 | 16.0 | 0.00 | 0.00 | 0.00 | 44 | 1013.1 |
| 20260502195532 | 54 | 317 | 6.0 | 17.0 | 0.00 | 0.00 | 0.00 | 45 | 1013.3 |
| 20260502195031 | 55 | 306 | 6.0 | 19.0 | 0.00 | 0.00 | 0.00 | 44 | 1013.4 |
| 20260502194533 | 57 | 338 | 5.0 | 16.0 | 0.00 | 0.00 | 0.00 | 44 | 1013.4 |
| 20260502194030 | 56 | 306 | 10.0 | 16.0 | 0.00 | 0.00 | 0.00 | 46 | 1013.5 |
| 20260502193528 | 56 | 310 | 6.0 | 17.0 | 0.00 | 0.00 | 0.00 | 47 | 1013.4 |
| 20260502193028 | 56 | 329 | 10.0 | 19.0 | 0.00 | 0.00 | 0.00 | 44 | 1013.5 |
| 20260502192528 | 55 | 15 | 12.0 | 19.0 | 0.00 | 0.00 | 0.00 | 43 | 1013.5 |
| 20260502192027 | 55 | 28 | 5.0 | 17.0 | 0.00 | 0.00 | 0.00 | 43 | 1013.7 |
| 20260502191527 | 55 | 349 | 10.0 | 17.0 | 0.00 | 0.00 | 0.00 | 43 | 1013.6 |
| 20260502191027 | 56 | 317 | 5.0 | 16.0 | 0.00 | 0.00 | 0.00 | 43 | 1013.5 |
| 20260502190526 | 55 | 338 | 6.0 | 17.0 | 0.00 | 0.00 | 0.00 | 43 | 1013.5 |
| 20260502190126 | 55 | 254 | 10.0 | 17.0 | 0.00 | 0.00 | 0.00 | 42 | 1013.3 |
| 20260502185524 | 55 | 292 | 6.0 | 17.0 | 0.00 | 0.00 | 0.00 | 43 | 1013.4 |
| 20260502185024 | 55 | 292 | 9.0 | 16.0 | 0.00 | 0.00 | 0.00 | 44 | 1013.4 |
| 20260502184523 | 55 | 281 | 7.0 | 16.0 | 0.00 | 0.00 | 0.00 | 42 | 1013.4 |
| 20260502184022 | 54 | 316 | 6.0 | 15.0 | 0.00 | 0.00 | 0.00 | 50 | 1013.6 |
| 20260502183521 | 54 | 329 | 8.0 | 15.0 | 0.00 | 0.00 | 0.00 | 44 | 1013.5 |
| 20260502183020 | 53 | 36 | 8.0 | 16.0 | 0.00 | 0.00 | 0.00 | 47 | 1013.7 |
| 20260502182521 | 54 | 340 | 11.0 | 16.0 | 0.00 | 0.00 | 0.00 | 45 | 1013.7 |
| 20260502182021 | 54 | 268 | 5.0 | 15.0 | 0.00 | 0.00 | 0.00 | 47 | 1013.7 |
| 20260502181518 | 54 | 300 | 8.0 | 15.0 | 0.00 | 0.00 | 0.00 | 45 | 1014.0 |
| 20260502181017 | 54 | 5 | 5.0 | 12.0 | 0.00 | 0.00 | 0.00 | 47 | 1014.0 |
| 20260502180516 | 53 | 360 | 5.0 | 14.0 | 0.00 | 0.00 | 0.00 | 46 | 1014.1 |
| 20260502170509 | 52 | 11 | 6.0 | 13.0 | 0.00 | 0.00 | 0.00 | 50 | 1014.8 |
| 20260502164006 | 51 | 291 | 4.0 | 12.0 | 0.00 | 0.00 | 0.00 | 48 | 1015.2 |
| 20260502163506 | 51 | 355 | 6.0 | 14.0 | 0.00 | 0.00 | 0.00 | 52 | 1015.3 |
| 20260502163011 | 50 | 304 | 5.0 | 14.0 | 0.00 | 0.00 | 0.00 | 51 | 1015.3 |
| 20260502162505 | 51 | 43 | 7.0 | 14.0 | 0.00 | 0.00 | 0.00 | 50 | 1015.2 |
| 20260502162004 | 50 | 5 | 8.0 | 14.0 | 0.00 | 0.00 | 0.00 | 51 | 1015.3 |
| 20260502161503 | 50 | 15 | 7.0 | 14.0 | 0.00 | 0.00 | 0.00 | 51 | 1015.5 |
| 20260502161004 | 50 | 295 | 8.0 | 15.0 | 0.00 | 0.00 | 0.00 | 53 | 1015.5 |
| 20260502160504 | 49 | 13 | 8.0 | 15.0 | 0.00 | 0.00 | 0.00 | 54 | 1015.4 |
| 20260502152058 | 46 | 360 | 9.0 | 16.0 | 0.00 | 0.00 | 0.00 | 54 | 1015.8 |
| 20260502151612 | 46 | 19 | 5.0 | 12.0 | 0.00 | 0.00 | 0.00 | 59 | 1015.8 |
| 20260502151058 | 46 | 350 | 7.0 | 13.0 | 0.00 | 0.00 | 0.00 | 59 | 1015.8 |
| 20260502150558 | 46 | 67 | 7.0 | 13.0 | 0.00 | 0.00 | 0.00 | 58 | 1015.7 |
| 20260502130552 | 43 | 35 | 6.0 | 17.0 | 0.00 | 0.00 | 0.00 | 62 | 1015.7 |
| 20260502130103 | 43 | 333 | 8.0 | 17.0 | 0.00 | 0.00 | 0.00 | 62 | 1015.8 |
| 20260502123546 | 42 | 15 | 4.0 | 13.0 | 0.00 | 0.00 | 0.00 | 65 | 1015.3 |
| 20260502123047 | 42 | 10 | 7.0 | 13.0 | 0.00 | 0.00 | 0.00 | 66 | 1015.3 |
| 20260502122547 | 42 | 9 | 5.0 | 12.0 | 0.00 | 0.00 | 0.00 | 66 | 1015.3 |
| 20260502122046 | 42 | 15 | 6.0 | 12.0 | 0.00 | 0.00 | 0.00 | 67 | 1015.2 |
| 20260502121546 | 42 | 12 | 6.0 | 12.0 | 0.00 | 0.00 | 0.00 | 67 | 1015.2 |
| 20260502121046 | 42 | 350 | 6.0 | 14.0 | 0.00 | 0.00 | 0.00 | 67 | 1015.1 |
| 20260502120545 | 42 | 20 | 7.0 | 14.0 | 0.00 | 0.00 | 0.00 | 67 | 1015.1 |
| 20260502115543 | 42 | 360 | 6.0 | 14.0 | 0.00 | 0.00 | 0.00 | 70 | 1015.3 |
| 20260502115043 | 42 | 355 | 6.0 | 14.0 | 0.00 | 0.00 | 0.00 | 70 | 1015.4 |
| 20260502114542 | 42 | 9 | 6.0 | 16.0 | 0.00 | 0.00 | 0.00 | 72 | 1015.3 |
| 20260502114042 | 42 | 345 | 10.0 | 16.0 | 0.00 | 0.00 | 0.00 | 71 | 1015.3 |
| 20260502113541 | 42 | 346 | 6.0 | 14.0 | 0.00 | 0.00 | 0.00 | 71 | 1015.3 |
| 20260502113049 | 42 | 9 | 7.0 | 13.0 | 0.00 | 0.00 | 0.00 | 71 | 1015.3 |
| 20260502112540 | 42 | 340 | 6.0 | 13.0 | 0.00 | 0.00 | 0.00 | 72 | 1015.0 |
| 20260502112041 | 42 | 331 | 7.0 | 13.0 | 0.00 | 0.00 | 0.00 | 71 | 1015.0 |
| 20260502111543 | 42 | 5 | 9.0 | 13.0 | 0.00 | 0.00 | 0.00 | 72 | 1015.0 |
| 20260502111037 | 42 | 355 | 6.0 | 11.0 | 0.00 | 0.00 | 0.00 | 73 | 1015.1 |
| 20260502110537 | 42 | 355 | 5.0 | 13.0 | 0.00 | 0.00 | 0.00 | 73 | 1014.9 |
| 20260502110038 | 42 | 355 | 5.0 | 13.0 | 0.00 | 0.00 | 0.00 | 73 | 1014.9 |
| 20260502105536 | 42 | 348 | 7.0 | 13.0 | 0.00 | 0.00 | 0.00 | 73 | 1014.7 |
| 20260502105038 | 42 | 13 | 7.0 | 13.0 | 0.00 | 0.00 | 0.00 | 72 | 1014.8 |
| 20260502104535 | 42 | 5 | 6.0 | 13.0 | 0.00 | 0.00 | 0.00 | 73 | 1014.6 |
| 20260502104034 | 42 | 5 | 7.0 | 13.0 | 0.00 | 0.00 | 0.00 | 72 | 1014.8 |
| 20260502103533 | 42 | 360 | 7.0 | 12.0 | 0.00 | 0.00 | 0.00 | 73 | 1014.8 |
| 20260502103032 | 43 | 9 | 6.0 | 11.0 | 0.00 | 0.00 | 0.00 | 73 | 1014.7 |
| 20260502102532 | 43 | 347 | 5.0 | 13.0 | 0.00 | 0.00 | 0.00 | 73 | 1014.6 |
| 20260502102031 | 43 | 346 | 7.0 | 12.0 | 0.00 | 0.00 | 0.00 | 74 | 1014.7 |
| 20260502101529 | 43 | 355 | 7.0 | 13.0 | 0.00 | 0.00 | 0.00 | 75 | 1014.6 |
| 20260502101028 | 43 | 355 | 4.0 | 13.0 | 0.00 | 0.00 | 0.00 | 77 | 1014.6 |
| 20260502100527 | 43 | 360 | 6.0 | 12.0 | 0.00 | 0.00 | 0.00 | 77 | 1014.8 |
| 20260502091522 | 44 | 325 | 5.0 | 14.0 | 0.00 | 0.00 | 0.00 | 81 | 1015.0 |
| 20260502091020 | 44 | 349 | 9.0 | 14.0 | 0.00 | 0.00 | 0.00 | 81 | 1015.1 |
| 20260502090520 | 44 | 355 | 7.0 | 14.0 | 0.00 | 0.00 | 0.00 | 81 | 1015.2 |
| 20260502071504 | 46 | 355 | 4.0 | 9.0 | 0.00 | 0.00 | 0.00 | 78 | 1014.5 |
| 20260502071004 | 46 | 321 | 3.0 | 9.0 | 0.00 | 0.00 | 0.00 | 78 | 1014.4 |
| 20260502070507 | 46 | 14 | 5.0 | 10.0 | 0.00 | 0.00 | 0.00 | 78 | 1014.3 |
| 20260502070005 | 46 | 360 | 6.0 | 11.0 | 0.00 | 0.00 | 0.00 | 78 | 1014.2 |
| 20260502065502 | 46 | 27 | 6.0 | 11.0 | 0.00 | 0.00 | 0.00 | 78 | 1014.3 |
| 20260502065100 | 46 | 13 | 4.0 | 12.0 | 0.00 | 0.00 | 0.00 | 78 | 1014.4 |
| 20260502064623 | 46 | 17 | 5.0 | 12.0 | 0.00 | 0.00 | 0.00 | 78 | 1014.7 |
| 20260502064058 | 46 | 10 | 4.0 | 9.0 | 0.00 | 0.00 | 0.00 | 77 | 1014.8 |
| 20260502063557 | 47 | 346 | 3.0 | 9.0 | 0.00 | 0.00 | 0.00 | 77 | 1015.0 |
| 20260502063057 | 47 | 321 | 3.0 | 9.0 | 0.00 | 0.00 | 0.00 | 77 | 1015.0 |
| 20260502062554 | 47 | 17 | 4.0 | 10.0 | 0.00 | 0.00 | 0.00 | 76 | 1015.0 |
| 20260502062055 | 47 | 316 | 5.0 | 11.0 | 0.00 | 0.00 | 0.00 | 76 | 1015.0 |
| 20260502061554 | 47 | 350 | 7.0 | 11.0 | 0.00 | 0.00 | 0.00 | 76 | 1015.0 |
| 20260502061117 | 47 | 355 | 5.0 | 11.0 | 0.00 | 0.00 | 0.00 | 77 | 1015.2 |
| 20260502055542 | 47 | 55 | 4.0 | 8.0 | 0.00 | 0.00 | 0.00 | 77 | 1015.3 |
| 20260502055043 | 47 | 355 | 2.0 | 10.0 | 0.00 | 0.00 | 0.00 | 77 | 1015.3 |
| 20260502054538 | 48 | 346 | 1.0 | 11.0 | 0.00 | 0.00 | 0.00 | 77 | 1015.2 |
| 20260502054039 | 48 | 344 | 5.0 | 12.0 | 0.00 | 0.00 | 0.00 | 77 | 1015.1 |
| 20260502053536 | 48 | 18 | 4.0 | 12.0 | 0.00 | 0.00 | 0.00 | 77 | 1015.3 |
| 20260502053036 | 48 | 9 | 5.0 | 11.0 | 0.00 | 0.00 | 0.00 | 78 | 1015.2 |
| 20260502052535 | 48 | 17 | 4.0 | 11.0 | 0.00 | 0.00 | 0.00 | 78 | 1015.3 |
| 20260502052034 | 48 | 360 | 5.0 | 13.0 | 0.00 | 0.00 | 0.00 | 78 | 1015.3 |
| 20260502051533 | 48 | 38 | 4.0 | 13.0 | 0.00 | 0.00 | 0.00 | 78 | 1015.1 |
| 20260502051031 | 48 | 28 | 4.0 | 9.0 | 0.00 | 0.00 | 0.00 | 78 | 1015.3 |
| 20260502050533 | 48 | 13 | 4.0 | 9.0 | 0.00 | 0.00 | 0.00 | 78 | 1015.3 |